Regional Weather Roundup
Issued by NWS Bismarck, ND

Home | Current Version | Previous Version | Text Only | Print | Product List | Glossary On
Versions: 1 2 3 4 5 6 7 8 9 10 11 12 13 14 15 16 17 18 19 20 21 22 23 24 25 26 27 28 29 30 31 32 33 34 35 36 37 38 39 40 41 42 43 44 45 46 47 48 49 50
000
ASUS43 KBIS 212059
RWRBIS

NWR BROADCAST TEXT
NATIONAL WEATHER SERVICE BISMARCK ND
400 PM CDT TUE OCT 21 2014

NOTE: "FAIR" INDICATES FEW OR NO CLOUDS BELOW 12,000 FEET WITH NO
SIGNIFICANT WEATHER AND/OR OBSTRUCTIONS TO VISIBILITY.


CITY           SKY/WX    TMP DP  RH WIND       PRES   REMARKS
WILLISTON      SUNNY     75  42  30 SE10      29.59F
MINOT          SUNNY     72  42  34 SE16      29.65F
MINOT AFB      NOT AVBL
BISMARCK       MOSUNNY   81  46  29 S14G26    29.68S
DICKINSON      NOT AVBL
GARRISON         N/A     73  45  36 S8        29.65F
HETTINGER ARPT SUNNY     81  43  26 S18       29.66F
JAMESTOWN      SUNNY     75  43  31 S20G30    29.78F
CARRINGTON     FAIR      73  45  35 SE26G36   29.75F HAZE
HARVEY         FAIR      73  45  35 S22G28    29.69F
OAKES            N/A     79  45  29 S21G26    29.83S HAZE
$$

CITY           SKY/WX    TMP DP  RH WIND       PRES   REMARKS
GRAND FORKS    SUNNY     65  42  43 SE26G38   29.86F
GRAND FORKS AF NOT AVBL
DEVILS LAKE    SUNNY     66  43  42 SE24G31   29.75F
FARGO          SUNNY     67  41  38 SE22G38   29.89F
CAVALIER       FAIR      64  41  42 SE21G32   29.82F
GRAFTON        FAIR      64  41  42 SE29G38   29.85F
GWINNER        CLEAR     72  45  37 SE24      29.87S
LANGDON        FAIR      64  41  42 SE33G41   29.79F
$$

CITY           SKY/WX    TMP DP  RH WIND       PRES   REMARKS
ABERDEEN       SUNNY     79  44  28 S21G31    29.83F
MOBRIDGE       SUNNY     85  43  22 S25G36    29.69F
RAPID CITY     SUNNY     81  43  26 S17G28    29.73F
GLASGOW        SUNNY     75  46  35 SE8       29.55F
SIDNEY         SUNNY     72  46  40 CALM      29.60F
WOLF POINT     SUNNY     75  48  38 E7        29.55F
GLENDIVE       SUNNY     72  41  33 S7        29.61F
MILES CITY     SUNNY     76  41  28 S3        29.60F
BAKER          SUNNY     81  38  21 SW10      29.63F
$$

CITY           SKY/WX    TMP DP  RH WIND       PRES   REMARKS
BILLINGS       CLOUDY    70  34  26 SW12      29.66F
GREAT FALLS    LGT RAIN  47  45  93 W13       29.77S
$$




USA.gov is the U.S. government's official web portal to all federal, state and local government web resources and services.